New York, NY

11:23 AM EDT on March 26, 2017 (GMT -0400)
La Guardia

Weather History for KLGA - November, 2013

Change the Weather History Date:

Thursday, November 28, 2013

  Actual Average Record
Temperature  
Mean Temperature 34 °F 44 °F  
Max Temperature 36 °F 50 °F 68 °F (1990)
Min Temperature 31 °F 38 °F 21 °F (1951)
Degree Days  
Heating Degree Days 31 21  
Month to date heating degree days 517 463  
Since 1 July heating degree days 719 735  
Cooling Degree Days 0 0  
Month to date cooling degree days 0 0  
Year to date cooling degree days 1402 1213  
Moisture  
Dew Point 12 °F    
Average Humidity 44    
Maximum Humidity 56    
Minimum Humidity 32    
Precipitation  
Precipitation 0.00 in 0.12 in 1.76 in (1980)
Month to date precipitation 2.77 3.16  
Year to date precipitation 33.83 40.92  
Snow  
Snow 0.00 in 0.00 in - ()
Month to date snowfall 0.2 0.2  
Since 1 July snowfall 0.2 0.2  
Snow Depth 0.00 in    
Sea Level Pressure  
Sea Level Pressure 30.21 in    
Wind  
Wind Speed 17 mph (NW)    
Max Wind Speed 31 mph    
Max Gust Speed 44 mph    
Visibility 10 miles    
Events      
T = Trace of Precipitation, MM = Missing Value Source: NWS Daily Summary

Daily Weather History Graph

Daily Weather History Graph

Search for Another Location

Airport or City:

Trip Planner

Search our weather history database for the weather conditions in past years. The results will help you decide how hot, cold, wet, or windy it might be!

Date:

Astronomy

Nov. 28, 2013 Rise Set
Actual Time 6:57 AM EST 4:29 PM EST
Civil Twilight 6:27 AM EST 4:59 PM EST
Nautical Twilight 5:53 AM EST 5:33 PM EST
Astronomical Twilight 5:20 AM EST 6:06 PM EST
Moon 1:55 AM EST (11/28) 1:38 PM EST (11/28)
Length of Visible Light 10h 32m
Length of Day
9h 32m
Waning Crescent, 22% of the Moon is Illuminated
Nov 28
Waning Crescent
Dec 2
New
Dec 9
First Quarter
Dec 17
Full
Dec 25
Last Quarter

Hourly Weather History & Observations

Time (EST) Temp. Windchill Dew Point Humidity Pressure Visibility Wind Dir Wind Speed Gust Speed Precip Events Conditions
12:51 AM 34.0 °F 20.8 °F 17.1 °F 50% 29.78 in 10.0 mi WNW 27.6 mph 31.1 mph N/A   Scattered Clouds
1:51 AM 34.0 °F 21.3 °F 16.0 °F 48% 29.82 in 10.0 mi WNW 25.3 mph 34.5 mph N/A   Scattered Clouds
2:51 AM 33.1 °F 21.2 °F 16.0 °F 50% 29.87 in 10.0 mi WNW 20.7 mph 26.5 mph N/A   Scattered Clouds
3:51 AM 32.0 °F 19.2 °F 15.1 °F 50% 29.93 in 10.0 mi WNW 23.0 mph 41.4 mph N/A   Scattered Clouds
4:51 AM 32.0 °F 18.6 °F 14.0 °F 48% 29.99 in 10.0 mi WNW 25.3 mph 41.4 mph N/A   Scattered Clouds
5:51 AM 32.0 °F 19.8 °F 17.1 °F 54% 30.04 in 10.0 mi WNW 20.7 mph 36.8 mph N/A   Mostly Cloudy
6:51 AM 30.9 °F 19.1 °F 15.1 °F 52% 30.11 in 10.0 mi WNW 18.4 mph 34.5 mph N/A   Partly Cloudy
7:51 AM 30.9 °F 17.8 °F 12.9 °F 47% 30.15 in 10.0 mi WNW 23.0 mph 29.9 mph N/A   Mostly Cloudy
8:51 AM 30.9 °F 18.1 °F 14.0 °F 50% 30.20 in 10.0 mi NW 21.9 mph 27.6 mph N/A   Scattered Clouds
9:51 AM 32.0 °F 19.2 °F 12.9 °F 45% 30.24 in 10.0 mi NW 23.0 mph 28.8 mph N/A   Scattered Clouds
10:51 AM 32.0 °F 19.2 °F 12.9 °F 45% 30.23 in 10.0 mi NW 23.0 mph 29.9 mph N/A   Partly Cloudy
11:51 AM 33.1 °F 22.6 °F 10.9 °F 40% 30.25 in 10.0 mi WNW 16.1 mph 26.5 mph N/A   Partly Cloudy
12:51 PM 34.0 °F 23.4 °F 10.0 °F 37% 30.25 in 10.0 mi NW 17.3 mph - N/A   Partly Cloudy
1:51 PM 35.1 °F 24.5 °F 10.0 °F 35% 30.27 in 10.0 mi NW 18.4 mph 24.2 mph N/A   Clear
2:51 PM 35.1 °F 26.9 °F 8.1 °F 33% 30.29 in 10.0 mi WNW 11.5 mph 23.0 mph N/A   Partly Cloudy
3:51 PM 35.1 °F 25.9 °F 9.0 °F 34% 30.32 in 10.0 mi NW 13.8 mph - N/A   Partly Cloudy
4:51 PM 34.0 °F 24.6 °F 10.0 °F 37% 30.35 in 10.0 mi NW 13.8 mph - N/A   Partly Cloudy
5:51 PM 34.0 °F 25.0 °F 10.0 °F 37% 30.40 in 10.0 mi NW 12.7 mph - N/A   Partly Cloudy
6:51 PM 33.1 °F 26.1 °F 10.0 °F 38% 30.42 in 10.0 mi NNW 8.1 mph - N/A   Partly Cloudy
7:51 PM 33.1 °F 25.5 °F 9.0 °F 37% 30.45 in 10.0 mi NW 9.2 mph - N/A   Partly Cloudy
8:51 PM 33.1 °F 24.9 °F 10.0 °F 38% 30.45 in 10.0 mi NNW 10.4 mph - N/A   Mostly Cloudy
9:51 PM 33.1 °F 26.9 °F 9.0 °F 37% 30.46 in 10.0 mi NNW 6.9 mph - N/A   Mostly Cloudy
10:51 PM 33.1 °F 26.9 °F 10.0 °F 38% 30.47 in 10.0 mi NNW 6.9 mph - N/A   Overcast
11:51 PM 33.1 °F 28.7 °F 10.0 °F 38% 30.48 in 10.0 mi West 4.6 mph - N/A   Overcast